Location: *
(48.4333°N, 5.0333°W)
Time: 23:36:03
(UTC+00:00)

Cosmos 1727 Rocket - Pass Details

Date: 09 April 2020
Orbit: 960 x 997 km, 82.9° (Epoch: 02 June)

Event Time Altitude Azimuth Distance (km) Brightness Sun altitude
Exits shadow 23:50:34 61° 313° (NW) 1,113 4.3 -33.1°
Drops below altitude 10° 23:56:16 10° 4° (N) 2,770 7.2 -33.3°
Sets 23:58:51 0° 8° (N) 3,726 8.1 -33.3°
